RH
102 101 96 83 65 50 43 42 42 41 42 42 43 43 42 42 42 40 38 39 40 42 43 42 44 46 46 47 48 50 51 52 53 51 47 44 42 40 38 36 35 35 33 32 30 28 27 27 29 30 30 29 28 26 25 26 24 24 24 28 38 45 46 43 40 39 39 37 35 32 30 31 35 38 38 35 33 31 30 29 28 26 23 19 16 13
102 98 86 66 50 44 44 44 44 44 44 44 43 43 41 41 41 40 40 41 41 43 45 44 47 51 50 51 53 53 54 54 53 49 46 44 42 40 38 36 36 36 34 33 32 31 31 31 32 31 30 29 27 27 30 30 28 26 28 36 45 48 46 43 42 41 38 36 34 30 29 32 36 38 37 33 31 31 30 30 28 26 24 19 15 14
102 93 72 52 44 44 45 45 45 45 44 43 42 41 41 40 41 43 43 43 43 44 48 49 52 57 56 55 55 55 54 53 51 48 46 43 40 38 37 37 37 37 36 35 36 36 34 33 32 32 30 28 29 34 39 36 30 29 35 45 50 49 46 44 43 40 38 35 32 29 30 34 38 38 35 32 31 31 30 30 28 27 24 20 15 14
97 81 58 45 44 45 46 46 45 44 44 43 42 42 42 42 42 44 44 46 47 48 52 52 54 59 59 56 54 53 53 52 50 47 42 40 38 37 37 38 39 40 40 40 40 38 35 34 32 31 31 33 39 46 45 37 32 36 45 52 52 49 47 45 42 39 36 34 31 29 31 36 39 38 33 31 31 31 31 30 28 27 26 21 16 15
88 67 48 43 45 46 46 46 45 45 44 43 43 43 44 44 43 44 46 50 53 54 54 54 54 57 58 54 52 52 53 51 47 43 39 38 38 39 40 42 43 45 44 42 40 37 35 33 32 34 40 46 52 52 44 36 38 46 53 54 51 49 47 44 41 38 35 33 29 29 33 38 40 38 33 31 31 31 31 30 28 28 27 24 18 15
77 55 45 44 46 47 46 46 46 46 45 45 45 44 45 45 46 47 49 51 54 57 58 56 53 54 57 55 51 51 51 46 43 40 38 39 41 43 45 46 47 46 44 41 39 36 34 35 41 49 54 56 56 48 39 40 48 56 56 53 50 49 46 42 39 37 34 31 29 31 35 39 40 38 34 32 32 32 32 31 29 28 27 26 20 16
68 48 44 46 47 47 47 47 47 46 47 47 47 45 45 46 48 50 51 52 54 58 59 56 54 53 56 56 50 47 46 43 40 40 40 42 43 46 48 48 47 45 42 39 37 37 42 51 60 63 60 57 51 42 41 49 57 58 54 52 50 47 44 41 38 36 33 30 30 33 38 41 40 38 35 33 34 34 33 32 30 28 28 28 24 18
62 46 45 46 47 48 48 48 48 48 47 47 46 45 45 47 50 53 55 56 57 59 58 56 55 52 52 53 47 44 43 41 41 41 43 44 46 49 50 48 45 43 41 41 45 53 62 69 69 62 57 51 43 41 50 58 59 56 53 51 49 46 43 40 38 35 33 31 32 36 40 42 41 39 37 37 36 35 33 32 30 29 29 30 28 22
55 46 46 48 49 49 49 50 49 48 46 45 44 45 47 50 54 56 58 60 59 58 56 55 54 51 50 50 45 42 42 42 42 43 45 47 50 51 49 46 45 47 50 57 65 72 76 73 63 54 49 43 41 50 60 61 57 54 53 51 48 45 42 40 38 35 33 33 35 39 43 43 42 40 40 40 39 36 34 32 31 30 30 31 31 26
49 47 48 50 51 50 51 50 48 47 46 45 46 48 51 54 56 58 60 59 56 55 54 53 54 51 50 50 43 40 42 42 43 44 48 52 54 53 51 52 56 62 70 76 79 80 75 65 53 46 41 40 50 62 63 59 56 56 54 52 48 44 42 41 38 35 34 35 39 43 45 45 44 42 43 44 42 38 35 34 32 31 31 32 33 31
47 48 50 51 52 51 52 50 47 47 46 46 49 51 53 55 56 57 57 55 53 52 52 52 54 52 51 49 42 39 40 41 43 47 52 58 59 58 59 64 71 78 82 84 84 77 66 54 44 39 39 49 62 66 62 59 59 58 56 52 48 45 43 41 38 35 36 40 43 46 47 46 46 45 47 47 44 41 37 35 34 33 32 32 34 34
48 48 50 51 52 51 50 49 47 47 47 50 51 51 52 53 54 54 54 53 52 52 50 51 53 52 50 48 42 39 41 44 48 53 60 65 66 68 70 75 80 84 85 86 81 68 54 43 37 37 47 61 66 63 61 63 63 61 57 53 51 47 43 40 37 37 41 45 48 49 49 48 49 49 50 50 47 44 40 38 36 34 33 33 34 36
49 49 50 51 51 51 49 48 49 49 50 51 52 51 50 50 50 50 50 50 50 49 48 48 48 47 48 46 42 42 46 50 54 61 67 71 74 77 79 82 85 86 86 82 71 55 42 36 37 46 58 64 63 62 64 66 65 62 59 57 53 47 42 39 38 41 46 50 52 52 52 52 53 53 54 53 50 47 44 41 38 36 34 33 34 37
50 51 51 50 50 50 49 49 50 51 51 52 52 51 49 49 47 46 46 46 45 46 45 44 43 44 47 47 46 49 52 54 59 66 71 76 80 82 84 87 89 87 82 71 55 41 35 39 49 58 62 60 60 63 66 65 64 63 63 60 53 46 42 40 42 46 51 54 56 57 58 58 58 58 58 56 53 50 46 42 40 37 34 34 34 36
49 52 51 50 50 50 50 51 52 52 52 52 52 50 50 50 46 44 45 43 41 42 42 43 43 47 52 52 51 54 56 58 64 70 72 75 78 80 82 86 85 79 67 52 40 37 42 52 59 60 59 59 62 64 65 63 63 64 64 58 50 45 44 45 48 52 55 58 61 63 64 64 62 61 62 60 56 52 47 43 41 38 35 34 34 35
46 49 51 51 51 51 52 53 53 53 52 50 50 50 51 50 48 46 44 41 40 39 40 44 46 51 59 59 56 58 58 59 66 69 68 68 68 70 74 77 71 59 46 39 39 46 54 59 59 57 59 63 64 64 62 61 61 62 59 52 47 47 49 52 55 57 59 62 66 68 69 68 67 66 65 62 58 53 48 44 41 39 37 35 35 36
44 46 51 52 53 54 53 52 53 53 52 49 48 49 50 48 47 44 41 40 40 38 42 46 49 54 63 65 62 56 52 57 65 64 61 60 61 63 64 59 48 39 37 43 50 55 56 57 57 60 64 65 64 62 60 59 59 57 52 48 48 51 54 57 60 62 64 67 70 72 73 72 72 71 68 64 59 53 48 44 41 39 38 37 36 36
42 45 51 53 54 54 52 52 54 54 52 49 47 48 48 46 44 42 41 41 41 42 44 47 51 56 64 74 70 53 48 58 63 60 58 60 59 54 48 40 36 38 45 53 57 56 56 57 61 64 66 65 63 61 60 58 55 52 49 49 52 56 58 61 64 67 69 71 73 75 76 76 76 75 72 66 59 53 48 44 41 40 39 37 36 36
42 45 52 58 58 55 53 52 54 54 51 48 47 47 45 44 42 42 42 43 44 44 43 48 56 63 78 90 76 54 54 62 61 60 60 56 50 43 39 38 42 46 50 57 60 58 58 60 63 65 65 63 61 60 59 55 51 50 50 53 57 59 62 65 69 73 74 75 77 79 80 80 79 77 73 67 60 54 49 45 42 40 39 38 37 36
44 44 50 60 61 55 52 51 52 52 48 46 46 45 44 44 43 44 45 46 46 43 45 55 61 76 102 102 74 58 63 61 55 53 50 44 45 45 44 44 45 47 51 59 62 60 59 59 59 60 61 60 59 57 55 52 51 53 55 58 62 65 68 72 75 77 80 81 82 83 83 82 80 78 73 67 60 55 51 46 43 41 39 38 36 36
44 43 47 56 58 53 50 49 48 47 45 45 44 44 45 45 46 48 47 47 47 48 59 65 59 78 105 93 69 63 59 48 43 43 43 49 55 54 49 45 45 49 55 59 58 55 53 53 53 55 56 56 55 53 54 55 57 59 62 65 69 72 75 77 79 82 84 85 85 85 85 83 80 77 71 65 60 56 52 48 44 41 39 37 36 35
41 42 46 51 53 50 48 46 44 42 42 43 44 46 48 49 50 49 44 48 53 60 73 71 60 75 89 75 63 57 44 41 45 46 51 59 61 57 51 48 48 52 54 52 49 48 48 49 51 52 54 55 56 57 59 62 64 66 69 72 75 78 80 81 83 85 86 87 87 86 85 83 79 74 69 65 61 58 54 50 45 41 38 36 35 34
39 39 42 45 46 46 45 43 41 42 44 45 48 51 52 52 52 49 49 56 63 70 76 70 60 65 68 60 54 46 42 50 54 52 57 62 62 59 52 48 50 52 51 48 47 48 49 50 52 54 57 61 63 64 66 68 71 73 76 78 80 81 82 84 85 86 87 88 87 86 84 81 77 72 68 64 61 57 53 48 43 39 37 34 33 32
37 37 38 39 40 42 44 44 44 46 48 50 53 54 54 55 54 56 61 68 73 76 72 60 47 47 53 56 52 47 51 57 55 55 59 60 61 57 49 49 53 53 52 52 53 56 56 57 59 62 65 67 68 69 70 73 76 78 80 81 81 82 84 86 87 88 89 88 86 84 81 78 74 70 67 63 58 53 49 44 41 37 34 32 31 30
36 37 38 37 39 42 45 48 50 52 54 55 56 57 58 61 62 67 74 76 74 66 55 46 39 44 59 62 52 49 53 54 54 57 59 60 60 55 50 54 57 57 58 60 64 66 66 67 68 69 71 71 71 72 74 76 79 80 82 82 83 84 86 88 89 89 88 85 83 80 76 73 69 66 62 58 52 48 44 40 37 34 31 29 28 27
37 39 41 41 42 44 46 50 50 51 53 56 62 67 69 70 72 76 75 69 57 45 44 49 45 49 64 62 49 49 54 53 55 59 63 67 64 57 55 60 63 65 68 71 74 74 73 73 72 74 75 74 74 75 76 78 80 82 84 86 87 88 89 90 90 88 85 81 79 75 70 65 61 57 54 50 46 42 39 35 33 30 28 26 25 25
39 42 44 45 47 49 50 50 49 51 59 69 79 79 70 66 67 66 59 52 46 41 49 56 48 45 56 54 47 50 53 53 54 55 60 64 62 58 61 65 69 73 75 76 77 75 74 74 75 76 76 75 75 77 78 81 84 86 89 92 92 91 91 90 87 83 79 74 71 66 61 56 51 47 44 42 40 37 34 31 28 26 24 23 22 22
41 44 46 47 49 52 56 59 65 71 78 82 80 65 51 50 53 53 50 50 48 44 46 52 48 46 49 47 46 49 50 51 52 54 58 61 61 63 66 69 73 74 75 75 74 73 73 74 76 77 77 77 78 80 83 86 88 90 93 94 92 89 86 82 78 74 68 62 58 53 50 47 43 40 38 36 35 33 30 27 25 23 22 21 20 20
41 42 46 49 56 66 76 82 83 80 74 67 55 42 40 47 51 51 52 50 47 43 44 48 50 49 47 45 48 51 51 52 55 59 64 66 66 67 67 69 71 71 72 73 73 74 74 74 76 77 79 83 85 87 89 90 90 90 89 86 80 75 71 68 65 61 55 49 46 43 41 39 37 35 33 30 29 28 26 24 22 21 20 19 19 19
44 51 61 68 78 91 91 79 67 59 52 47 42 41 48 53 52 49 49 49 47 46 47 49 50 51 50 49 52 56 57 59 63 67 70 71 70 67 66 67 69 70 73 74 74 75 76 77 79 82 85 88 90 91 91 89 86 81 76 69 62 57 54 51 49 47 43 39 37 35 32 30 29 28 27 25 24 23 22 22 20 19 19 19 18 19
62 66 68 64 68 76 68 51 47 48 46 44 45 48 51 52 50 50 52 54 54 51 52 53 53 55 56 56 60 64 65 67 68 70 72 72 70 68 67 69 70 73 74 74 76 78 79 83 85 88 89 89 88 86 82 76 70 64 58 53 47 43 40 37 36 35 32 29 28 26 24 23 22 22 22 21 21 20 20 20 19 18 18 18 18 18
53 49 45 40 43 51 49 45 50 52 47 44 45 48 52 53 55 57 59 62 60 56 57 59 58 59 63 66 68 69 70 69 69 71 75 75 73 71 71 71 73 74 75 76 79 81 83 86 88 89 88 85 80 73 65 58 52 48 46 43 39 36 31 29 27 26 24 22 21 20 19 18 19 19 19 19 18 18 18 18 17 17 17 17 17 17
36 35 37 38 43 49 50 49 52 51 47 46 47 52 58 60 59 60 64 66 64 59 60 62 64 67 70 70 67 67 69 69 70 74 78 77 73 71 71 73 76 78 80 81 82 84 86 88 88 86 82 75 66 57 49 45 42 40 39 36 33 28 24 22 20 19 19 18 17 17 16 16 17 18 16 15 15 15 15 15 15 15 15 15 15 16
36 38 39 41 45 50 51 50 53 54 50 48 50 58 63 60 58 60 65 67 65 65 69 70 71 73 73 70 68 67 69 72 74 79 81 78 74 73 75 78 81 84 84 85 85 86 87 86 83 77 69 59 50 42 38 36 34 32 30 27 24 20 18 17 17 16 16 15 14 14 13 13 15 14 12 11 11 12 12 12 12 12 13 13 14 15
39 41 43 45 46 49 51 53 55 57 53 49 52 60 63 60 59 62 68 72 74 77 79 78 76 76 76 76 77 76 74 74 76 83 86 83 82 84 85 86 88 88 88 87 85 82 79 73 66 56 46 38 32 29 27 25 23 22 20 18 17 16 15 15 14 13 12 11 11 10 10 11 12 11 10 9 9 10 10 10 10 10 11 11 12 13
43 43 43 45 46 49 52 55 57 56 54 52 56 63 65 63 65 69 74 84 91 90 84 79 79 82 83 84 83 79 75 72 76 88 95 94 93 93 92 92 92 90 86 80 73 65 56 48 39 30 24 21 19 18 17 16 16 16 15 14 13 13 12 11 11 10 10 9 9 9 9 10 10 8 8 8 8 8 8 9 9 9 10 10 11 12
44 43 44 47 51 52 52 55 58 59 59 61 64 68 67 66 70 71 72 83 92 89 82 79 80 82 83 81 78 76 73 72 77 89 97 96 95 95 95 95 93 88 80 68 54 42 32 26 21 18 16 15 14 14 14 13 13 13 12 11 10 10 9 9 9 9 8 8 8 8 8 8 8 7 7 7 7 7 7 8 8 8 9 10 10 11
49 50 52 54 55 53 52 56 60 62 64 66 67 67 64 65 68 67 67 77 86 84 81 80 78 78 77 75 73 74 74 71 72 79 85 86 88 91 93 92 87 78 65 51 36 25 18 16 16 15 15 14 14 13 13 12 11 10 9 8 8 8 8 8 8 7 7 7 7 7 7 7 7 7 6 7 6 6 7 7 7 7 8 9 9 10
56 57 58 59 58 57 58 62 64 65 67 68 67 64 64 68 71 69 69 79 86 86 84 80 76 75 74 73 73 73 70 66 63 65 70 74 75 77 78 72 61 48 37 28 21 16 15 15 15 15 14 14 13 12 11 10 9 8 8 7 8 8 7 7 7 6 6 6 6 6 6 6 6 6 6 6 6 6 6 6 7 7 7 8 9 9
61 60 61 62 62 63 66 70 70 71 74 75 72 70 74 78 80 76 75 80 85 86 84 79 75 73 72 71 71 69 66 63 59 58 58 57 56 55 52 44 31 22 18 16 15 15 15 15 15 14 13 12 10 9 9 9 8 8 7 7 6 6 6 6 6 6 6 6 5 5 5 5 5 5 5 5 5 5 5 6 6 7 7 7 8 9
60 60 62 65 68 72 75 75 72 74 81 84 81 79 82 86 86 84 83 81 79 79 80 78 75 72 69 68 67 64 62 62 60 57 52 48 43 37 30 22 16 14 14 15 15 15 15 14 13 12 11 9 8 8 8 8 8 7 6 6 5 5 5 6 5 5 5 4 4 4 4 4 4 4 4 4 4 4 4 5 5 6 6 7 8 8
58 61 65 69 72 76 77 74 71 76 86 90 87 85 87 88 87 84 82 81 78 76 74 74 73 71 67 63 61 61 61 62 61 57 51 44 34 23 16 14 13 14 15 16 16 15 12 11 10 9 9 9 8 7 7 6 6 6 6 5 5 5 5 4 4 4 4 3 3 3 3 3 3 3 3 3 3 3 4 4 5 5 6 6 7 8
60 64 68 71 74 75 74 71 71 79 90 93 88 86 88 87 82 77 75 78 80 76 71 69 70 69 64 58 56 58 60 61 59 54 45 35 25 17 14 15 15 15 15 14 12 11 9 8 8 8 8 8 7 6 6 5 5 5 5 5 4 4 4 3 3 3 3 3 3 3 3 3 3 3 3 3 3 3 3 3 4 5 5 6 6 7
65 69 72 74 75 73 72 73 77 85 95 95 87 83 83 82 78 76 75 76 76 73 70 67 66 65 62 59 57 57 58 58 53 43 31 23 18 16 15 15 14 14 12 11 9 9 8 7 7 7 7 7 6 6 5 4 5 5 4 4 4 3 3 3 3 3 3 3 2 3 3 3 3 3 3 3 3 3 3 3 4 4 5 5 6 7
73 76 77 76 75 75 76 80 83 90 98 98 90 85 85 84 82 82 81 78 75 73 70 67 65 66 65 62 59 56 55 50 39 27 20 16 16 15 15 14 13 11 10 9 8 8 7 7 6 6 6 6 5 5 5 4 4 4 4 3 3 3 3 2 2 3 3 2 2 2 3 3 3 3 3 3 2 3 3 3 3 4 4 5 5 6
82 81 77 75 76 80 84 86 89 94 101 102 96 92 94 96 95 91 86 80 77 75 73 71 71 70 67 61 56 51 46 35 23 17 16 16 16 15 13 12 10 9 9 9 8 7 7 6 6 6 5 5 5 5 5 4 3 3 3 3 2 2 2 2 2 2 2 2 2 2 2 3 2 2 3 2 2 2 3 3 3 4 4 4 5 6
85 79 75 77 82 88 92 95 98 101 104 102 97 97 101 103 100 95 89 83 79 77 75 75 74 69 62 55 48 39 29 20 15 15 16 16 14 12 11 9 9 9 9 8 7 7 6 5 5 5 4 4 5 4 4 3 3 3 3 2 2 2 2 2 2 2 2 2 2 2 2 2 2 2 2 2 2 2 2 3 3 3 4 4 5 5
84 78 79 85 92 96 99 100 101 103 107 106 103 101 98 92 87 84 83 81 78 74 72 71 69 63 54 43 32 22 16 14 15 16 15 14 12 10 9 8 8 8 8 7 7 6 5 5 4 4 4 4 4 4 4 3 3 3 3 2 2 2 2 2 2 2 2 2 2 2 2 2 2 2 2 2 2 2 2 3 3 3 4 4 4 5
83 82 85 92 99 104 105 103 101 102 107 110 107 98 87 78 74 75 76 76 74 70 66 63 59 52 41 28 18 13 13 15 17 16 14 12 10 9 9 8 8 8 7 7 6 6 5 5 4 4 4 4 4 3 3 3 3 3 3 2 2 2 2 2 2 2 2 2 2 2 2 2 2 2 2 2 2 2 2 3 3 3 4 4 4 5
85 89 93 97 102 106 106 104 101 98 98 97 91 83 77 73 72 73 74 73 71 65 57 51 45 36 26 18 15 14 16 17 16 15 13 11 10 9 8 8 7 7 7 6 6 6 5 5 4 4 4 4 3 3 3 3 3 3 3 2 2 2 2 2 2 2 2 2 2 2 2 2 2 2 2 2 2 2 2 3 3 3 3 4 4 5
92 97 100 103 103 104 104 103 100 94 87 81 77 74 73 72 71 72 73 71 64 55 46 38 30 22 16 15 16 17 17 16 15 13 11 11 11 10 8 8 7 7 7 6 6 5 5 5 5 5 4 3 3 3 3 3 3 3 3 3 2 2 2 2 2 2 2 2 2 2 2 2 2 2 2 2 2 2 2 2 3 3 3 4 5 5
Wind_Speed
39 40 40 40 39 38 37 37 37 37 38 39 40 41 42 44 46 47 48 50 51 54 57 57 58 62 63 63 65 66 68 68 70 72 73 75 76 78 79 80 81 81 81 80 80 79 78 78 78 79 79 79 79 78 76 75 71 67 62 58 58 60 63 66 68 70 73 76 78 81 82 83 83 83 82 82 81 82 83 84 86 89 93 95 94 93
41 41 40 39 38 37 37 37 37 38 39 40 41 43 44 45 47 50 51 52 54 55 58 58 60 64 65 64 66 67 69 70 72 74 75 77 79 80 81 81 81 80 80 80 79 79 79 79 79 80 79 79 79 77 74 72 67 62 58 57 58 61 64 67 69 72 75 78 80 82 83 83 83 82 81 80 80 80 82 83 85 87 91 93 91 90
41 41 40 38 37 37 37 38 38 39 40 42 43 44 46 46 48 51 53 55 56 56 58 59 61 65 67 66 67 69 71 72 73 75 77 79 80 80 80 79 79 79 79 79 80 80 80 80 80 80 80 79 77 74 71 67 63 58 56 57 59 62 65 68 71 74 76 79 81 82 83 83 83 82 80 79 79 80 80 81 83 86 89 91 89 87
41 40 39 38 38 38 38 39 40 41 42 43 44 45 47 48 49 52 54 56 58 58 58 59 60 64 69 69 69 70 72 73 75 77 79 79 79 79 78 77 77 78 79 80 81 82 81 81 81 80 79 77 74 71 67 63 58 56 56 58 61 64 66 69 73 76 78 81 82 83 83 83 83 83 80 79 79 79 80 80 81 84 87 90 88 86
41 40 39 38 39 39 39 40 41 42 43 44 46 47 48 50 51 52 54 56 59 61 61 60 59 62 70 72 69 71 73 75 77 79 79 78 77 76 76 77 78 80 81 82 82 82 82 81 79 78 76 74 71 68 63 58 56 56 57 60 62 65 68 71 75 78 80 82 83 83 84 84 84 83 81 79 79 80 80 80 80 82 85 88 87 84
40 39 39 39 39 40 40 42 42 43 45 46 47 48 49 51 53 54 55 55 58 61 63 63 61 61 68 73 71 71 75 77 78 78 77 76 75 76 77 79 81 82 82 83 83 82 80 78 76 75 73 72 68 63 58 56 55 57 59 62 64 67 70 74 77 80 82 83 83 84 84 85 85 84 82 80 80 81 82 81 81 81 83 87 87 84
40 39 39 39 40 41 42 42 44 44 45 47 49 50 50 52 53 54 56 57 58 60 63 66 66 62 65 73 74 73 76 78 78 77 77 76 76 78 80 81 82 83 83 83 81 79 77 75 74 73 72 69 64 59 55 55 57 59 61 63 66 70 73 76 79 81 83 84 84 85 86 86 85 85 84 82 82 83 83 82 81 81 82 85 86 84
41 40 40 40 41 41 42 43 45 46 46 47 49 50 51 52 54 55 57 59 59 62 65 68 69 66 66 72 75 74 76 77 77 77 77 78 79 80 82 82 82 83 82 80 78 76 74 73 73 72 70 64 59 56 55 57 59 61 63 66 69 72 75 78 81 83 84 85 85 86 87 88 86 86 86 85 85 84 83 82 81 81 81 83 85 85
41 41 41 41 42 42 43 44 45 46 47 48 50 51 52 53 54 56 58 60 61 63 67 69 71 70 69 74 76 74 75 76 77 78 79 80 81 82 83 82 81 80 78 76 75 74 74 74 73 70 64 59 55 55 57 59 61 63 66 69 72 75 77 80 82 84 85 86 87 88 89 89 88 88 88 88 88 86 85 83 82 81 80 82 84 85
41 41 42 42 43 43 44 45 46 47 48 49 50 51 53 54 55 57 59 61 62 64 67 70 73 73 73 76 77 74 74 75 76 78 80 82 83 82 81 79 78 76 75 75 74 74 74 74 71 65 58 55 54 56 59 61 64 66 69 72 75 77 80 81 83 85 86 87 89 90 91 91 90 90 91 91 90 88 86 85 83 82 81 81 83 85
42 42 42 43 43 44 45 46 47 48 50 50 52 53 54 56 57 59 61 63 64 65 68 70 74 76 77 78 78 76 74 75 76 78 80 82 82 81 79 76 75 74 74 74 74 74 74 72 67 59 55 54 56 58 61 63 66 70 73 76 78 80 81 83 84 86 87 89 91 93 93 93 93 92 93 94 93 91 89 87 85 83 81 80 82 84
42 42 43 44 44 45 46 47 48 50 51 52 54 55 56 58 59 60 62 64 65 66 68 71 74 76 79 81 81 78 77 76 76 77 79 80 80 78 76 75 75 74 74 73 74 74 72 67 61 56 54 55 58 60 63 66 70 73 76 79 81 83 83 84 86 87 89 91 93 95 95 95 95 95 95 96 95 93 92 89 87 85 82 80 80 83
43 43 44 44 45 47 48 49 50 51 52 54 56 58 59 60 61 61 63 65 66 67 69 71 73 75 79 83 83 80 78 78 77 76 77 78 77 76 75 75 75 75 73 72 73 71 67 62 58 56 57 58 60 62 65 69 72 76 79 82 84 85 86 86 87 88 91 94 96 97 97 98 98 98 98 97 97 95 94 92 90 87 84 81 80 81
43 44 45 46 47 49 50 50 52 53 54 56 58 60 62 63 64 63 64 65 66 67 68 70 73 75 80 85 84 79 78 78 77 76 76 76 76 75 75 75 75 74 72 71 70 67 62 59 58 59 60 61 62 65 69 72 75 78 81 84 85 86 88 88 89 90 93 96 98 99 100 101 101 100 101 100 99 97 95 93 91 88 85 82 80 80
43 45 47 48 49 50 51 52 54 55 56 58 60 62 64 67 68 67 67 67 67 66 67 70 73 76 82 87 85 79 77 77 75 75 75 76 76 75 74 74 74 72 70 68 65 63 60 59 60 62 63 64 67 69 72 75 77 80 83 85 87 88 89 91 92 93 95 98 100 101 102 103 103 103 103 102 101 99 96 94 92 89 86 83 81 79
43 45 48 49 50 52 53 54 56 57 59 60 62 64 66 68 70 71 70 70 70 68 66 68 72 76 83 90 87 80 75 75 74 74 75 75 75 73 73 72 71 69 66 63 61 60 61 62 63 64 66 68 71 74 76 78 80 82 84 86 88 89 91 93 95 97 98 100 102 103 104 105 105 105 105 104 102 100 97 95 92 90 87 85 82 80
43 45 48 50 52 54 55 56 58 60 61 62 63 66 68 70 71 73 72 71 72 71 67 67 70 74 83 91 88 79 73 72 74 73 73 73 71 70 69 68 66 63 60 59 60 62 64 65 66 68 70 73 76 78 80 81 83 84 86 88 89 91 93 95 97 99 101 102 103 105 106 107 107 107 107 105 104 101 98 95 92 90 88 86 83 81
45 45 48 52 53 55 56 57 59 62 63 64 65 68 70 71 72 74 74 73 74 72 66 66 67 71 81 90 87 77 71 71 71 70 70 70 68 67 65 64 62 60 59 60 62 64 66 68 70 72 74 77 79 81 83 85 86 87 88 90 92 94 96 98 100 102 103 104 106 107 108 108 109 109 108 107 105 102 99 95 93 91 89 87 84 82
47 46 49 53 55 57 58 59 61 64 65 66 68 70 72 73 73 74 75 74 74 72 66 64 63 66 78 88 85 75 71 70 68 67 68 67 65 63 61 61 61 62 62 63 64 67 69 71 73 75 77 80 82 84 86 87 88 90 91 93 95 97 99 100 102 104 106 107 108 109 110 110 110 110 109 107 105 102 100 97 94 92 90 87 85 82
49 48 49 53 57 59 60 61 63 65 66 67 69 71 73 75 75 75 76 75 75 72 68 64 58 59 74 87 81 73 71 69 65 62 63 63 62 61 61 62 64 65 66 66 67 69 72 73 75 77 80 82 84 86 87 89 91 93 95 96 98 100 102 103 105 106 108 109 110 111 111 112 111 110 109 107 105 102 100 98 95 93 90 87 85 83
50 50 51 54 58 60 61 63 64 66 67 68 70 72 75 76 76 75 74 73 74 71 71 69 57 55 71 83 76 72 69 66 62 59 59 60 61 63 64 66 68 68 69 70 70 72 73 75 78 80 82 84 86 88 90 92 94 96 98 99 101 103 105 106 107 109 110 111 112 112 112 112 112 110 109 107 105 103 101 99 96 93 90 87 85 83
51 52 53 55 59 61 62 64 66 66 68 69 71 74 76 77 77 76 71 69 70 69 71 72 59 55 69 76 70 68 65 62 60 59 60 62 65 67 67 69 71 72 73 74 75 76 77 79 81 82 85 87 89 92 93 95 97 99 101 102 104 106 107 109 110 111 112 113 113 113 113 113 112 110 109 107 105 103 102 99 96 93 90 87 85 82
53 53 54 56 59 61 63 65 66 67 68 70 72 74 76 77 76 75 70 67 67 67 70 70 60 55 64 67 63 62 61 61 63 63 64 66 69 70 70 72 74 76 78 79 80 81 82 83 85 87 89 91 93 95 97 99 100 102 104 105 107 108 109 111 112 113 114 114 114 114 113 113 112 110 109 107 105 104 101 99 96 93 90 87 84 82
54 55 56 56 58 61 64 67 68 69 69 70 72 75 75 76 74 72 70 68 66 65 68 66 56 51 56 59 60 61 61 63 66 67 69 70 71 73 73 75 78 80 82 84 86 87 88 89 90 91 93 95 97 99 101 102 104 105 107 108 109 111 112 113 114 114 115 115 115 114 113 112 111 110 108 107 105 103 100 98 95 93 89 86 83 81
55 57 58 57 57 59 62 66 68 69 69 70 72 73 73 72 71 70 69 67 64 61 61 61 52 47 53 59 61 63 64 66 68 70 73 75 76 76 76 78 81 84 86 88 90 92 93 94 96 96 98 99 101 103 104 106 107 109 110 111 112 113 114 115 116 116 116 116 115 115 113 112 110 109 107 106 104 101 99 97 94 92 89 85 82 79
56 58 60 60 59 59 60 62 63 63 64 66 67 69 70 69 69 68 67 64 60 54 53 57 54 49 55 62 63 65 67 68 70 73 77 80 81 81 82 84 86 88 90 92 94 95 97 98 100 101 102 104 105 107 108 109 111 112 113 114 115 115 116 116 117 117 116 115 115 114 113 111 109 107 106 104 102 100 98 96 94 91 88 84 81 78
56 58 61 61 61 62 62 62 62 60 60 61 64 67 67 66 64 63 61 58 56 52 51 57 60 55 57 62 63 65 68 69 72 75 78 82 83 84 86 88 90 92 94 96 97 99 100 101 103 105 107 108 109 110 111 112 113 114 115 116 117 117 117 117 117 116 116 114 114 112 111 109 107 106 104 103 102 100 98 95 93 90 87 83 79 76
55 56 59 60 61 63 63 62 61 60 60 61 63 62 60 58 57 57 57 56 57 56 54 58 63 62 62 64 65 67 70 72 75 78 81 84 85 86 88 90 92 95 97 99 101 103 104 105 107 109 110 112 113 114 115 115 116 117 117 117 118 117 117 117 116 116 114 113 112 110 109 108 106 105 103 102 101 99 97 95 92 88 85 82 78 74
54 54 56 56 57 60 62 61 61 60 59 59 57 54 51 52 53 55 57 59 60 60 59 60 64 67 68 68 69 72 75 76 79 82 85 87 88 89 91 93 96 98 100 103 105 107 109 110 111 112 114 115 117 117 118 118 118 119 119 119 118 117 116 115 114 114 113 111 110 109 107 106 105 104 102 100 99 97 95 93 90 86 83 80 76 72
53 52 53 53 53 58 61 59 57 55 52 52 53 51 51 53 56 58 60 62 63 63 64 65 67 70 73 73 74 77 80 81 83 86 89 91 93 94 95 98 100 102 104 106 108 110 112 113 114 116 116 117 119 120 120 121 120 120 120 119 117 115 114 113 112 112 111 109 108 107 105 103 102 101 100 98 96 94 92 90 87 84 80 77 73 70
51 50 51 49 48 53 55 51 50 49 48 50 52 53 54 57 60 62 64 66 66 66 68 70 72 74 76 78 79 81 83 84 87 91 94 96 97 99 101 103 104 106 108 110 111 113 114 116 117 118 119 120 120 121 121 121 121 120 119 118 116 115 113 111 110 110 109 107 106 104 101 99 98 97 95 93 92 90 88 86 83 80 77 74 70 67
47 44 43 40 39 43 45 45 46 49 50 52 53 55 57 60 62 65 68 70 71 70 72 74 76 77 78 79 81 83 86 89 92 96 101 102 102 104 106 108 109 111 112 114 115 116 117 118 119 120 121 122 122 122 122 121 120 119 118 118 117 115 113 111 109 107 106 104 102 100 97 95 94 93 91 89 87 85 84 82 80 77 74 71 68 64
37 36 35 35 36 40 43 45 47 50 52 54 55 57 60 62 64 67 71 74 74 74 75 76 78 80 81 83 84 86 88 92 96 100 105 108 108 108 110 112 114 116 117 118 119 119 120 121 122 123 123 124 123 122 121 120 119 119 118 117 116 114 111 108 105 103 102 101 98 96 93 90 90 90 88 85 83 82 80 78 76 74 71 68 65 62
33 34 35 36 37 41 45 47 50 53 54 55 57 59 62 64 65 68 72 76 77 77 78 80 82 84 87 89 91 92 93 95 99 103 108 112 114 114 115 116 118 120 120 121 122 122 123 124 124 124 124 123 123 121 120 119 118 117 115 113 111 109 106 103 101 99 98 97 94 92 89 87 87 87 85 82 80 78 77 75 73 71 69 66 63 59
35 36 38 39 40 43 47 50 53 56 58 58 60 62 65 66 68 68 72 78 81 81 82 85 87 90 93 95 98 99 99 100 102 106 112 116 118 119 120 121 122 123 123 123 124 124 124 125 124 123 122 120 119 117 116 114 113 111 109 107 105 103 101 99 98 97 96 94 92 89 86 85 85 85 83 80 78 76 75 73 71 69 66 64 61 57
38 39 41 43 45 47 50 54 56 59 61 62 63 65 67 69 71 71 73 79 84 86 87 89 91 94 97 99 102 104 105 104 105 109 115 118 119 121 123 124 125 125 125 125 125 125 124 124 122 120 117 114 112 111 110 108 106 105 103 102 100 98 97 96 95 95 94 92 91 88 85 84 85 84 81 79 77 74 72 71 69 67 64 62 59 56
42 45 46 48 50 52 54 57 60 62 64 65 66 68 71 72 74 75 76 79 85 89 91 93 95 97 100 102 105 107 109 108 107 109 114 118 120 121 123 125 126 127 127 127 126 124 123 121 120 117 113 110 108 107 106 104 102 101 100 98 97 96 95 94 93 93 92 90 89 87 84 83 84 83 81 78 76 73 71 69 68 65 62 60 58 54
48 50 52 54 55 57 58 60 62 65 67 68 70 72 75 76 79 81 81 83 88 93 95 98 100 102 104 106 108 110 112 112 109 109 113 117 119 121 124 125 127 128 128 127 125 122 120 118 116 114 111 108 105 105 104 103 102 100 98 96 95 94 93 92 91 90 89 88 86 83 81 80 81 81 79 77 75 72 69 68 66 64 60 58 56 53
52 54 56 58 60 62 64 66 68 70 71 73 75 77 79 81 84 86 87 88 92 96 99 101 104 106 108 110 112 114 116 116 114 113 115 118 120 122 124 125 125 125 125 124 122 120 117 115 113 111 109 106 104 103 102 102 101 100 97 94 93 91 90 90 89 88 86 85 83 80 77 76 76 77 76 75 73 71 68 66 65 62 59 57 55 52
55 57 60 62 64 67 68 70 73 75 77 78 80 82 83 85 88 91 92 93 95 98 102 104 107 110 112 114 116 118 120 122 121 120 120 121 122 124 125 126 125 123 121 120 118 116 115 113 112 110 108 105 103 101 99 98 98 98 96 93 90 87 86 86 86 84 84 82 80 77 74 72 72 73 73 72 70 69 67 64 62 61 58 55 53 51
58 60 63 65 68 70 72 74 76 78 81 83 85 86 88 89 91 94 96 98 101 102 105 107 110 113 116 119 120 122 123 125 127 126 125 125 125 126 126 125 123 121 119 117 115 114 112 110 109 108 106 104 101 99 97 94 93 94 93 92 89 84 81 81 81 81 80 79 77 75 72 70 70 70 70 69 67 66 65 61 59 58 57 54 52 50
61 63 66 68 70 72 75 77 79 81 84 86 88 91 93 94 96 98 100 103 106 108 110 112 115 118 122 123 125 126 126 128 129 129 128 128 127 125 123 121 119 116 114 113 111 110 108 106 104 103 102 101 99 97 95 91 89 89 89 89 87 82 78 77 76 77 78 76 74 72 71 69 68 68 67 66 65 63 62 58 56 56 55 53 50 49
64 67 69 71 73 75 78 81 83 84 87 89 91 93 96 99 101 103 105 107 110 114 116 118 121 124 127 128 128 129 130 130 130 129 128 127 125 122 119 116 113 111 109 108 107 106 105 102 99 98 97 97 96 95 93 89 86 85 85 86 85 82 78 75 72 73 75 74 70 68 68 67 66 66 66 64 63 61 59 55 53 53 54 52 49 48
68 70 72 74 77 79 81 84 86 88 91 94 96 98 100 104 107 110 111 113 115 119 122 124 126 128 130 132 132 132 132 131 130 129 127 124 120 117 114 110 108 106 105 104 103 103 101 98 95 93 92 93 93 92 91 88 85 84 84 83 83 81 78 74 70 68 70 70 66 63 64 64 64 64 64 63 61 59 56 52 50 51 52 50 48 47
72 74 76 78 80 83 85 87 89 91 94 99 102 104 106 109 112 115 117 120 122 125 127 129 131 132 133 134 134 132 131 130 128 125 122 118 114 111 109 107 105 105 104 102 101 100 98 95 93 91 90 90 91 90 90 88 86 83 82 81 79 77 76 73 69 66 66 66 64 61 60 61 61 61 61 61 59 57 53 50 48 49 50 48 47 46
75 77 79 81 83 85 88 90 92 95 99 102 106 109 111 114 116 119 122 124 127 129 131 133 134 135 135 135 134 132 130 128 125 120 116 113 110 108 106 105 103 103 102 100 99 97 95 93 92 90 88 87 88 88 88 87 85 83 81 79 76 74 72 70 68 65 63 62 61 59 57 57 58 58 58 58 57 54 51 47 46 46 47 46 46 44
78 80 82 84 86 88 90 92 95 98 101 105 109 112 114 117 119 122 125 127 129 130 132 133 135 135 135 134 133 131 127 124 119 115 111 109 107 106 104 102 101 100 100 100 98 96 94 92 90 88 87 86 86 87 87 87 85 83 80 78 75 73 70 68 66 64 62 59 58 57 56 54 55 56 56 55 53 51 47 44 43 43 44 44 44 43
81 83 84 86 89 91 93 95 97 100 104 109 112 114 116 118 120 123 126 128 130 132 133 134 135 135 134 132 130 127 122 117 114 111 108 107 106 105 103 101 100 100 99 99 98 96 94 92 91 89 88 87 87 87 86 85 84 82 80 77 75 72 69 67 65 63 61 59 57 56 54 53 52 53 53 52 50 47 44 41 41 41 42 42 42 42
83 86 87 88 90 93 97 99 101 103 105 109 112 115 118 120 122 124 127 130 132 134 134 134 134 133 131 129 125 121 116 112 111 110 109 108 107 105 103 102 100 100 100 99 98 97 96 94 93 91 90 89 88 86 84 83 81 80 78 76 74 71 68 66 64 63 61 59 57 55 54 52 51 50 51 50 48 44 41 39 39 40 40 40 40 41
87 89 90 92 93 96 99 103 106 107 108 110 114 118 121 125 126 128 130 132 134 135 134 133 131 129 126 124 120 116 112 110 110 109 108 108 107 106 104 103 101 101 101 101 99 98 97 96 94 92 90 89 87 84 82 80 79 77 76 74 72 70 68 65 64 62 61 59 57 55 53 52 50 49 49 48 45 42 40 38 39 40 39 38 39 40
90 92 94 96 98 100 104 107 110 113 115 117 120 123 127 129 130 131 133 134 135 134 133 131 128 124 120 117 114 113 111 109 108 108 106 106 106 106 105 104 103 102 101 100 100 99 98 97 95 92 90 87 84 81 79 77 76 75 73 72 70 68 66 64 62 61 60 58 56 55 53 51 50 48 47 46 43 41 39 38 38 39 37 36 38 40
Wind_Direction
294 294 293 290 288 286 286 286 287 289 292 294 295 297 297 299 300 301 303 305 307 307 308 309 309 309 310 311 311 311 311 312 312 311 312 312 312 312 312 313 313 312 312 312 313 313 314 315 315 315 315 315 314 314 314 314 312 311 310 309 309 309 310 311 312 314 315 315 316 316 317 319 319 318 318 318 319 320 320 319 318 317 316 316 317 318
295 294 291 288 286 285 285 287 289 291 293 294 295 296 298 299 302 304 306 306 307 308 308 310 311 310 310 311 311 311 311 312 311 311 312 312 312 313 313 313 313 313 312 313 313 314 314 315 315 315 315 315 315 315 315 313 312 311 310 310 310 310 311 312 313 314 315 316 316 317 318 319 319 319 318 319 320 321 322 321 321 320 319 318 319 321
295 292 289 286 284 284 285 287 288 290 291 293 295 297 299 301 303 305 306 307 308 309 309 310 312 311 310 311 311 311 311 311 311 311 312 312 313 314 314 314 313 313 313 313 314 314 315 315 316 315 315 315 315 315 314 312 311 311 310 310 311 311 312 313 314 315 315 316 317 318 319 320 320 320 320 321 322 323 324 324 323 323 321 320 321 323
293 290 286 284 283 284 285 286 288 290 291 294 296 298 300 302 304 305 306 308 309 309 309 310 311 311 310 311 311 311 311 311 311 311 312 313 314 314 314 314 314 313 313 313 314 314 315 315 315 315 315 315 315 315 313 312 311 311 311 311 312 313 313 314 314 315 316 316 317 319 320 321 321 321 321 322 324 325 325 325 325 325 324 323 323 326
292 288 285 283 283 284 285 287 289 291 293 295 297 300 301 302 304 305 306 308 308 309 309 309 311 312 310 310 311 311 311 311 311 311 313 314 315 315 315 314 314 313 313 313 314 314 315 315 315 315 314 315 315 314 313 311 311 311 312 312 313 313 314 314 315 315 316 317 318 319 321 322 322 322 322 324 325 326 327 327 328 328 327 326 325 328
290 286 284 284 284 285 287 289 290 292 295 297 298 300 301 303 304 306 306 307 308 308 308 309 311 312 310 309 310 310 310 310 311 313 314 315 315 315 314 314 313 313 313 313 314 315 315 315 315 315 315 315 315 314 312 311 311 312 312 313 313 314 314 315 315 316 317 318 319 320 322 323 323 323 324 325 327 328 329 330 330 329 329 328 327 329
288 286 285 284 285 287 289 290 292 293 295 297 299 300 302 303 304 306 307 307 308 308 308 309 310 311 310 308 309 310 310 311 313 314 314 315 315 315 314 313 313 313 313 314 315 315 315 315 315 315 316 316 314 313 312 311 312 312 313 313 314 314 315 315 316 317 318 319 320 322 323 324 324 324 325 327 328 330 331 331 331 331 331 331 330 330
288 286 285 286 287 289 290 291 293 294 296 298 299 301 302 303 305 306 307 307 308 308 308 309 309 310 310 308 309 311 311 312 313 314 314 314 315 314 313 313 313 314 314 315 316 316 316 315 315 315 316 315 313 312 312 312 312 313 313 313 314 315 315 316 317 317 318 319 321 323 324 324 325 325 326 328 329 330 331 332 332 332 333 333 332 332
288 287 286 287 288 290 291 293 294 295 297 298 299 301 302 304 305 306 306 306 307 308 308 308 309 310 310 309 309 312 312 313 314 314 314 314 314 313 313 313 314 315 316 316 317 316 316 315 315 316 316 314 313 312 312 312 313 313 313 314 314 315 316 317 317 318 319 320 322 324 324 325 326 326 327 329 330 331 332 332 333 334 334 335 334 333
288 287 287 288 289 290 292 294 295 296 297 298 300 301 302 304 304 305 306 306 306 307 307 309 309 310 311 310 310 311 312 313 313 314 314 314 314 313 313 314 316 317 317 317 317 316 315 315 316 317 315 313 313 312 312 313 313 314 314 314 315 316 316 317 318 319 320 322 323 324 325 325 326 327 328 329 330 331 332 333 334 335 336 336 336 335
287 287 287 288 289 291 292 294 295 296 297 299 300 301 302 303 303 304 305 305 306 307 308 309 310 311 311 310 309 311 312 313 313 314 315 314 313 313 314 316 317 317 317 317 316 315 315 315 317 316 314 313 313 313 313 313 314 314 315 315 315 316 317 318 318 319 321 323 324 324 325 326 326 327 328 329 330 331 332 333 334 335 336 337 337 336
287 287 287 288 290 291 292 293 295 296 298 300 300 301 302 302 302 303 304 305 306 307 308 310 310 311 311 310 310 311 313 313 314 315 315 314 313 313 315 316 316 316 317 316 315 314 315 316 317 315 314 314 314 314 314 314 315 315 315 315 316 317 317 318 319 320 322 323 324 324 325 326 326 327 328 329 330 331 332 333 334 335 336 337 338 338
288 288 288 289 290 291 292 293 295 297 298 300 300 301 301 301 301 302 303 304 306 307 309 310 311 311 311 309 310 312 314 314 315 315 314 313 312 314 315 316 316 315 316 315 314 314 316 316 316 315 315 314 314 314 314 315 315 315 316 316 316 317 317 318 319 321 323 323 323 324 325 325 326 327 328 329 329 330 331 332 334 335 336 337 338 338
288 289 289 290 291 291 293 295 296 297 299 300 300 301 301 301 300 301 302 303 306 308 310 311 312 312 311 309 310 312 314 314 315 315 314 312 312 314 315 315 315 315 315 315 314 315 316 316 315 315 315 315 314 314 315 315 315 315 316 316 316 317 318 318 320 322 322 323 323 324 325 325 326 326 327 328 329 330 331 332 333 334 335 336 337 338
288 289 290 292 293 294 295 296 297 298 299 300 300 301 302 301 302 303 304 305 307 309 311 312 313 314 312 310 310 312 314 314 314 314 313 312 313 314 314 314 314 314 314 314 314 315 316 316 315 315 315 315 314 314 314 314 315 315 315 315 316 317 318 319 321 322 322 322 322 323 324 325 325 326 327 327 328 329 330 331 332 333 334 335 336 337
290 290 292 293 294 296 297 298 299 299 299 300 301 301 302 302 303 305 306 308 309 310 313 314 315 316 313 310 310 312 313 313 314 314 313 312 312 313 313 313 313 313 314 315 315 315 316 316 315 315 314 314 314 314 314 314 315 315 315 315 316 317 319 320 320 320 321 321 322 322 323 324 324 325 326 326 327 328 329 330 331 333 333 334 335 336
291 292 293 294 296 296 297 299 299 300 300 301 301 302 302 303 305 306 307 309 310 311 315 316 317 317 313 310 309 310 313 314 314 315 314 312 312 312 312 312 312 314 316 316 316 316 316 315 315 314 314 314 313 314 314 315 315 315 315 315 317 318 319 319 319 319 320 321 321 322 322 323 324 324 325 325 326 326 328 329 330 332 333 333 334 335
294 294 295 296 297 297 298 300 300 301 301 302 303 304 304 305 306 307 309 310 310 312 315 317 318 318 314 309 307 311 315 316 316 316 314 313 313 313 313 313 314 316 317 317 316 316 315 314 314 314 313 313 314 314 314 315 315 315 315 316 317 318 318 318 318 319 319 320 321 321 322 322 323 323 324 324 325 325 327 328 329 330 332 332 333 334
296 297 297 298 298 299 300 301 302 302 303 304 305 305 306 306 307 308 310 311 312 312 315 317 319 320 314 307 307 314 318 317 317 317 315 314 315 314 314 315 316 317 317 317 316 315 314 314 314 313 313 313 314 314 314 314 315 315 316 317 317 317 317 318 318 318 319 319 320 321 321 321 322 322 322 323 323 325 326 327 328 329 330 331 332 333
297 298 299 299 299 300 301 302 302 303 304 306 307 307 307 307 309 310 311 313 313 314 316 317 320 324 314 306 309 317 318 316 317 317 315 316 316 315 315 316 316 316 316 316 315 314 313 313 313 313 313 314 314 314 314 314 315 316 316 317 316 316 317 317 317 318 318 319 319 319 320 320 320 321 321 321 322 324 325 326 327 328 329 330 330 331
299 300 301 300 300 301 302 303 303 304 306 307 307 308 308 308 309 310 311 314 314 317 318 316 323 328 312 306 313 318 316 317 319 318 318 318 316 315 316 316 316 316 316 315 314 313 313 313 313 314 314 314 314 314 314 315 315 316 316 316 316 316 316 316 317 317 317 318 318 318 318 319 319 319 320 320 322 323 324 325 325 326 327 328 329 330
300 301 301 301 301 302 303 303 304 306 307 308 309 309 308 309 310 310 312 315 316 319 318 315 323 325 310 309 316 316 316 320 320 319 319 318 316 316 317 316 316 316 314 314 314 314 314 314 314 314 314 314 314 314 314 315 315 315 315 315 315 315 315 315 316 316 316 316 317 317 317 317 318 318 319 320 321 322 322 323 324 325 326 327 328 328
301 302 302 302 302 304 304 305 306 308 309 310 310 309 309 309 310 311 314 317 319 320 315 314 322 321 312 313 316 316 320 322 320 320 319 317 316 316 317 317 316 315 315 315 315 315 316 316 315 315 315 315 314 314 314 314 314 314 314 314 314 314 314 315 315 315 315 315 315 315 316 316 316 317 318 319 319 320 321 321 322 323 324 325 326 327
302 303 303 303 304 306 306 307 308 309 310 311 310 309 309 309 310 314 317 318 319 318 314 315 322 323 317 315 315 318 322 321 319 320 318 316 316 316 317 317 316 316 316 316 316 316 316 316 316 315 315 314 313 314 314 314 314 313 313 313 313 313 314 314 314 314 314 314 314 314 314 315 315 316 317 317 318 318 319 320 321 322 323 323 324 325
304 304 304 306 307 307 307 308 308 309 310 310 309 308 308 309 313 316 318 318 317 317 317 318 324 327 320 315 317 321 321 320 320 319 317 316 316 317 318 318 317 317 317 316 316 315 315 315 315 314 314 313 313 313 313 313 313 313 313 313 313 313 313 313 313 313 313 313 313 313 313 314 314 315 315 316 316 317 318 319 319 320 321 322 323 324
306 307 307 309 310 309 307 306 305 307 308 308 307 307 309 312 316 317 317 317 317 321 323 320 322 326 321 316 320 321 320 320 319 318 317 316 317 318 319 318 317 316 316 315 314 314 314 314 314 314 313 313 313 313 313 312 312 312 312 312 312 312 312 312 312 311 311 311 312 312 312 312 313 313 314 315 315 316 317 317 318 318 319 320 321 322
309 309 309 310 310 310 308 306 306 307 308 309 308 309 312 316 318 317 317 318 319 324 326 320 319 322 319 317 319 319 318 318 317 316 316 316 317 318 318 317 316 315 314 314 313 313 313 313 313 313 313 312 312 312 312 312 311 311 311 311 311 311 311 310 310 310 310 310 310 310 311 311 312 313 313 314 314 315 315 316 316 317 318 319 320 321
309 309 309 309 310 309 308 308 309 311 312 312 311 313 317 320 320 319 319 320 320 322 323 320 319 319 318 317 318 317 317 317 317 317 316 316 316 317 316 315 315 314 313 313 313 313 313 313 313 312 312 312 312 311 311 311 311 310 310 310 309 309 309 309 309 309 309 309 309 310 310 311 312 312 312 313 313 314 314 314 315 315 316 317 318 319
309 310 310 310 311 309 308 310 312 314 315 314 314 320 325 324 321 320 319 319 320 321 321 321 319 318 318 319 320 319 319 319 319 317 316 315 315 316 315 315 314 314 314 313 313 313 313 313 312 312 312 311 311 311 310 310 310 309 309 308 308 308 308 308 308 308 308 309 309 309 310 310 311 311 311 312 312 312 312 312 313 314 315 316 317 317
312 312 311 312 313 310 309 312 315 317 318 318 321 327 328 323 321 320 319 319 320 321 321 321 320 319 320 321 321 320 320 320 319 317 315 315 315 316 316 315 315 314 314 313 313 312 312 312 312 312 311 311 310 310 309 309 309 308 308 308 308 308 308 308 308 308 308 308 308 309 309 309 309 309 310 310 310 310 310 311 311 312 313 314 315 316
313 314 313 314 315 311 312 317 320 320 322 323 326 327 325 322 321 321 320 319 320 321 322 321 321 321 321 321 321 320 319 320 319 317 316 315 316 316 316 316 315 314 313 312 312 312 312 312 311 311 310 310 309 309 309 308 308 308 308 308 308 308 308 308 308 308 308 308 307 308 308 308 308 308 309 309 308 308 308 309 309 310 311 312 313 314
314 316 317 320 321 318 319 324 324 322 323 325 326 325 323 322 321 321 320 319 320 322 322 321 321 321 320 320 320 320 320 320 320 318 316 316 316 317 316 315 314 313 313 312 312 312 311 311 310 310 309 309 309 309 309 309 309 309 309 309 309 308 308 308 308 308 307 307 307 307 308 308 308 308 308 307 307 307 307 307 308 309 309 310 311 312
320 324 326 329 330 325 323 325 323 321 323 325 326 325 322 321 322 322 321 319 320 322 321 320 320 320 319 320 320 321 321 321 321 319 316 315 316 316 316 315 314 313 313 312 312 311 311 310 310 310 309 309 309 309 310 309 309 309 309 308 308 308 308 308 308 308 307 307 307 307 308 308 308 306 306 305 305 305 305 306 306 307 308 308 309 309
330 331 332 332 330 327 324 324 323 322 323 326 326 324 321 321 323 323 321 318 319 320 320 320 321 321 321 321 321 322 322 322 321 318 315 315 316 316 316 315 313 313 312 312 311 311 311 310 310 310 310 310 310 310 310 309 309 308 308 307 307 307 307 307 308 308 307 306 307 307 307 307 306 305 304 304 305 305 304 305 305 306 306 306 307 307
333 333 332 331 330 328 326 326 324 323 324 327 327 323 321 322 323 323 321 318 318 320 321 322 322 322 321 322 321 322 322 321 320 318 315 315 316 316 315 314 313 312 312 311 311 310 310 310 310 310 310 310 309 309 308 308 307 307 307 307 307 307 308 308 308 307 307 306 307 307 307 306 305 304 304 304 304 304 304 304 304 304 304 305 304 304
333 332 332 331 330 329 328 327 325 324 325 327 326 322 321 322 323 323 322 319 318 320 321 322 323 322 321 321 320 320 320 321 320 318 315 315 315 314 314 313 312 312 311 311 311 310 310 310 310 310 310 310 309 309 308 308 308 308 308 308 308 308 308 308 308 307 307 307 307 307 307 307 305 304 304 304 304 303 304 304 303 303 303 303 302 302
333 332 332 331 330 330 329 327 325 324 325 326 325 322 322 324 323 323 324 322 319 320 322 322 322 321 321 320 319 319 319 319 319 317 314 314 314 313 313 312 312 311 311 311 311 311 311 310 310 310 311 311 311 310 310 309 309 309 309 309 309 309 309 309 308 307 307 307 306 306 307 305 304 303 303 303 303 303 303 302 302 301 301 301 300 299
333 332 331 330 329 328 328 326 325 325 325 325 324 323 324 325 324 324 325 324 321 321 322 322 322 321 320 319 319 318 317 317 317 316 314 313 313 313 312 312 311 311 311 311 311 311 311 311 311 312 312 312 312 312 311 311 310 310 310 310 310 310 309 308 307 307 306 305 305 305 305 304 302 302 302 302 302 302 302 300 300 300 299 298 297 297
331 330 329 328 327 327 327 326 326 326 326 325 324 325 325 325 324 325 326 324 322 321 321 321 321 320 319 318 318 317 317 317 317 317 315 314 314 313 312 312 312 312 312 312 312 313 313 313 313 313 313 313 313 312 312 311 311 311 311 310 310 309 309 308 307 306 306 305 305 305 303 302 301 300 300 300 300 300 299 298 298 298 297 296 295 294
329 329 328 327 327 327 327 327 326 326 325 324 325 325 325 325 324 324 325 323 322 321 320 320 320 319 318 318 317 317 318 318 318 318 317 316 315 315 314 314 314 314 314 314 314 314 314 314 314 314 314 314 313 312 312 311 311 311 310 310 309 309 309 308 307 306 306 305 305 304 303 302 300 299 298 298 298 297 297 297 296 295 295 294 293 292
328 328 328 327 327 327 326 326 326 326 325 324 325 325 325 324 324 323 323 322 321 320 319 319 319 318 318 318 318 319 320 319 319 319 318 318 317 316 316 316 315 315 315 315 315 315 314 314 314 314 314 313 313 312 312 312 311 311 310 310 309 309 308 307 307 306 305 305 305 305 304 302 300 299 298 297 297 296 296 296 295 293 292 291 290 289
328 328 327 327 327 326 326 325 326 326 324 324 324 325 324 324 323 322 322 321 321 320 320 319 319 319 319 319 320 320 320 320 319 319 319 318 318 317 317 316 316 316 315 315 314 313 313 313 314 314 314 314 313 312 312 312 312 311 310 309 309 309 309 308 308 306 305 305 305 305 304 302 301 299 298 297 296 295 295 295 293 291 289 289 287 286
328 328 327 327 326 326 326 325 326 326 324 323 324 324 323 323 322 322 322 321 321 320 320 320 320 320 320 320 321 321 321 320 319 319 318 318 317 316 316 316 315 315 315 314 314 313 313 314 314 315 314 314 313 312 312 312 312 311 310 310 310 310 311 309 308 306 305 304 305 304 302 301 300 299 298 297 297 296 296 295 292 289 287 287 286 284
328 327 327 326 326 326 326 326 326 325 324 323 323 324 323 323 322 322 322 322 322 321 321 321 321 321 321 321 322 321 321 320 319 318 318 317 316 316 315 315 315 315 315 314 314 314 314 314 315 315 315 314 313 313 313 313 313 312 311 311 311 311 311 310 309 307 305 305 305 304 301 300 299 298 297 297 297 296 296 294 291 287 286 286 285 282
327 327 326 326 326 326 326 326 326 325 324 323 324 324 324 323 323 322 323 323 323 322 321 321 321 321 321 321 321 320 319 319 318 318 317 316 316 316 316 316 316 316 316 315 315 315 315 316 316 316 316 315 315 314 314 314 313 313 312 312 312 312 311 310 310 308 306 305 305 304 301 299 298 297 297 296 297 297 297 295 291 287 286 285 283 281
326 326 326 326 326 325 325 325 326 325 324 323 323 324 323 323 323 323 323 322 322 321 321 321 320 320 320 320 320 319 319 318 318 317 317 317 317 317 317 317 317 317 317 316 316 316 317 317 317 317 317 317 316 315 315 314 314 314 314 313 313 313 312 311 311 309 307 306 306 304 302 300 298 297 297 296 297 298 297 296 292 288 286 284 282 280
325 325 325 325 325 325 325 325 325 325 324 323 323 323 323 323 322 322 321 321 320 320 320 319 319 320 320 320 319 319 319 318 318 318 318 318 318 318 318 318 318 318 318 318 318 318 318 318 318 319 319 319 318 318 317 316 315 315 315 315 315 314 313 313 312 311 309 308 307 305 303 301 299 298 297 297 298 298 298 296 292 287 284 282 280 278
324 324 324 324 324 324 324 325 325 325 324 323 323 323 322 321 321 320 319 319 319 319 319 319 319 320 320 319 319 319 319 319 319 319 319 319 319 319 319 320 320 320 319 319 319 320 320 320 320 321 321 321 320 320 318 317 316 315 316 316 315 315 315 314 313 312 311 311 309 308 306 304 302 300 299 299 299 299 299 296 291 286 282 280 279 276
324 323 324 324 324 324 324 324 324 324 323 321 321 320 320 319 319 319 319 318 318 319 320 320 320 320 319 319 319 319 319 320 320 320 321 321 321 321 321 321 321 321 321 321 321 321 321 321 322 322 322 322 321 320 318 317 316 316 316 316 316 316 316 316 315 314 314 313 312 310 308 307 304 302 301 300 300 299 297 293 288 283 281 279 276 274
323 323 323 324 324 324 323 323 323 323 322 320 319 319 319 319 319 319 319 319 319 320 320 320 320 319 319 319 320 320 321 321 321 321 322 322 322 322 322 322 323 323 323 322 322 322 322 321 322 323 323 322 321 320 318 317 316 316 316 316 316 317 317 316 316 315 314 314 313 312 310 309 307 305 303 302 301 298 295 290 285 281 280 277 274 271
323 323 323 324 324 323 323 323 322 322 321 321 320 320 319 319 319 319 319 319 320 320 320 320 320 320 320 320 321 321 321 322 322 322 322 322 322 323 323 323 324 324 323 323 322 322 321 321 322 323 322 321 320 320 318 318 317 317 317 317 317 317 316 316 316 315 315 314 314 313 312 310 309 307 304 303 300 297 293 288 283 280 279 275 272 270